{"data":{"norad_id":62968,"epoch":"2026-09-21T12:56:29.259456Z","epoch_age_seconds":75345,"freshness":"FRESH","line1":"1 62968U 25029W   26264.53922754  .00005222  00000+0  17985-3 0  9999","line2":"2 62968  53.1586  41.2924 0001106  90.6946 269.4182 15.31714333 90467","mean_motion":15.31714333,"eccentricity":0.0001106,"inclination_deg":53.1586,"raan_deg":41.2924,"arg_perigee_deg":90.6946,"mean_anomaly_deg":269.4182,"bstar":0.00017985,"rev_number":9046,"period_min":94.012308233718,"perigee_km":469.93978856143,"apogee_km":471.45475070187,"semimajor_km":6848.8342696316,"source":"CELESTRAK","updated_at":"2026-09-22T09:00:49.715437Z"}}